Temperature
28 28 28 28 28 28 28 28 28 28 28 27 26 25 23 22 21 20 19 19 18 18 17 17 17 17 17 17 17 17 16 16 16 16 16 16 16 16 16 16 16 16 16 16
26 27 27 27 28 28 28 28 28 28 27 26 24 23 22 21 20 20 19 18 18 17 17 17 16 16 16 16 16 16 16 16 16 16 16 16 16 16 16 16 16 16 16 16
26 26 26 26 27 27 27 28 28 27 26 24 23 22 21 20 19 19 18 18 17 17 16 16 16 16 16 16 16 16 16 16 16 16 16 16 16 15 15 16 15 15 15 15
26 25 24 27 26 27 27 26 26 26 25 23 22 20 19 19 18 18 17 17 17 16 16 16 16 16 16 16 16 16 16 16 15 15 15 15 15 15 15 15 15 15 15 15
26 25 26 25 25 26 26 25 25 25 24 22 20 19 18 17 17 17 16 16 16 16 16 16 16 16 16 16 15 15 15 15 15 15 15 15 15 15 15 15 15 15 14 14
25 25 25 25 25 24 25 24 23 23 22 21 21 23 20 16 16 16 15 15 15 15 15 15 15 15 15 15 15 15 15 15 15 15 15 15 15 14 14 14 14 14 14 14
24 24 25 24 23 23 24 24 22 21 21 20 21 21 17 15 15 15 15 15 15 15 15 15 15 15 15 15 14 14 14 14 14 14 14 14 14 14 14 14 14 14 13 13
24 24 24 22 23 23 22 20 20 20 19 19 17 16 15 15 14 14 14 14 14 14 14 14 14 14 14 14 14 14 14 14 14 14 14 14 14 13 13 13 13 13 12 12
23 22 20 20 20 18 18 19 18 18 17 16 16 15 14 14 14 14 14 14 14 14 14 14 14 14 14 14 13 13 13 13 13 13 13 13 13 13 13 13 12 12 12 12
20 20 19 18 17 17 17 17 17 16 16 16 15 14 14 14 13 13 13 13 13 13 13 13 13 13 13 13 13 13 13 13 13 13 12 12 12 12 12 12 12 12 11 11
20 19 18 17 17 17 16 16 16 15 15 15 14 14 13 13 13 13 13 13 13 13 13 13 13 13 13 13 13 13 12 12 12 12 12 12 12 11 11 11 11 11 11 10
20 19 19 18 16 15 15 15 15 14 14 14 14 13 13 12 12 12 12 12 12 12 12 12 12 12 12 12 12 12 12 12 12 12 11 11 11 11 10 10 10 10 10 10
17 17 16 15 15 15 15 14 14 14 13 13 13 12 12 12 12 12 12 12 12 12 12 12 12 12 12 12 12 12 12 11 11 11 11 11 10 10 10 9 9 9 9 9
15 15 15 15 14 14 13 13 13 12 12 12 12 12 12 11 11 11 11 11 11 11 11 11 11 11 11 11 11 11 11 11 11 11 11 10 10 10 9 9 9 8 8 8
14 14 14 13 13 13 12 12 12 12 11 11 11 11 11 11 11 11 11 11 11 11 11 11 11 11 11 11 11 11 11 11 10 10 10 10 10 9 9 9 9 8 8 8
13 13 13 13 13 12 12 12 12 11 11 11 10 11 11 11 10 10 10 10 10 10 10 10 10 10 10 10 10 10 10 10 10 10 10 10 9 9 9 9 8 8 8 7
13 13 13 12 12 12 11 11 11 11 10 10 10 10 10 10 10 10 10 10 10 10 10 10 10 10 10 10 10 10 10 9 9 10 9 9 9 9 9 9 8 8 7 7
13 13 12 12 12 11 11 11 10 10 10 10 10 10 10 10 9 9 9 9 9 9 9 9 9 9 9 9 9 10 10 9 9 9 9 8 8 8 8 8 7 7 7 6
12 12 12 11 11 11 10 10 10 10 10 10 10 10 9 9 9 9 9 9 9 9 8 9 9 9 9 9 9 9 9 9 9 8 8 8 8 8 7 7 7 7 6 6
11 11 11 11 11 10 10 10 10 10 10 10 10 9 9 9 9 8 8 8 8 8 8 8 8 8 8 8 9 9 8 8 8 8 7 7 7 7 7 7 6 6 6 5
11 11 10 10 10 10 10 10 10 10 9 9 9 9 9 8 8 8 8 8 8 8 8 8 8 8 8 8 8 8 8 8 7 7 7 7 7 6 6 6 6 5 5 5
10 10 10 10 10 9 9 9 9 9 9 9 9 9 8 8 8 8 8 8 7 7 7 7 7 7 7 7 7 7 7 7 7 7 7 6 6 6 6 5 5 5 5 4
10 10 10 10 10 9 9 9 9 9 9 9 8 8 8 8 8 8 7 7 7 7 7 7 7 7 7 7 7 7 7 7 7 6 6 6 5 5 5 5 4 4 4 4
9 10 9 9 9 9 9 9 9 8 8 8 8 8 8 8 7 7 7 7 6 6 6 6 6 6 6 7 6 6 6 6 6 6 6 5 5 5 4 4 4 4 4 3
9 9 9 9 9 9 8 8 8 8 8 8 7 7 7 7 7 7 6 6 6 6 6 6 6 6 6 6 6 6 6 5 5 5 5 5 5 4 4 4 4 4 3 3
9 9 9 9 9 8 8 8 8 8 8 7 7 7 7 7 6 6 6 6 6 6 6 5 5 5 6 6 5 5 5 5 5 5 5 4 4 4 4 4 3 3 3 3
8 9 9 9 8 8 8 8 8 8 8 7 7 7 7 6 6 6 6 6 6 5 5 5 5 5 5 5 5 5 5 5 4 4 4 4 4 4 4 3 3 3 3 3
Wind_Speed
9 6 10 13 14 15 16 14 11 9 8 5 5 6 7 7 8 8 7 6 5 5 4 4 4 4 4 5 5 6 6 7 6 6 6 5 5 5 4 5 5 5 5 5
10 8 10 11 12 13 14 12 11 8 5 4 6 7 7 7 7 7 6 5 5 4 3 3 3 4 5 5 5 6 6 6 6 6 5 5 5 5 4 4 4 4 5 4
11 10 10 13 12 12 11 9 9 9 4 8 9 8 7 7 6 6 5 4 4 3 2 2 2 3 4 4 5 6 6 5 5 6 5 5 5 5 5 4 4 4 4 4
9 10 14 6 3 6 8 6 5 3 6 8 9 8 7 6 5 5 4 3 3 2 2 2 2 3 4 4 5 5 5 5 5 5 5 5 5 5 5 4 4 4 4 4
9 13 11 6 5 7 8 6 5 6 8 9 11 10 7 6 5 5 4 3 3 3 3 2 2 3 4 5 5 5 5 5 5 5 5 5 5 5 5 6 6 5 5 5
9 12 12 6 8 5 5 7 6 8 10 11 11 8 6 6 5 5 5 4 3 3 4 3 3 4 5 5 6 5 5 5 5 6 6 6 6 6 6 6 6 7 7 7
12 11 6 6 7 7 8 4 8 7 9 10 5 3 9 7 5 5 5 4 4 5 4 4 4 5 6 6 6 6 6 6 7 7 7 7 7 7 7 8 8 8 9 8
11 12 7 6 7 5 3 6 7 7 7 7 8 10 9 8 6 5 5 5 5 5 5 5 4 6 7 7 6 7 8 9 8 8 8 8 9 8 7 8 9 9 9 9
3 1 6 4 3 4 3 5 6 7 7 9 10 9 8 8 6 6 6 5 5 6 6 6 5 6 8 7 7 9 10 10 10 10 9 8 9 9 8 7 7 7 7 8
2 3 4 4 3 3 4 5 6 7 8 9 9 9 8 7 6 6 6 6 6 7 7 7 7 7 8 8 9 10 11 10 10 10 11 10 8 7 7 6 6 7 7 7
3 3 4 4 4 4 5 6 8 8 8 9 10 9 8 7 7 6 6 6 6 7 8 8 8 8 8 8 10 12 11 11 11 11 12 11 12 10 10 10 8 7 7 7
1 3 2 4 4 5 7 7 8 9 9 8 9 10 9 8 7 7 7 7 7 8 9 9 9 9 8 9 10 11 11 10 9 9 10 10 12 13 19 15 17 18 16 11
0 2 4 5 5 6 7 8 9 9 10 10 9 9 9 9 8 8 8 8 9 9 9 9 9 9 8 8 9 10 10 10 9 9 9 9 9 10 11 12 17 18 16 15
4 5 6 6 6 7 9 10 10 11 10 10 10 10 10 10 10 9 9 9 10 10 10 10 10 10 8 9 10 10 11 10 9 8 8 8 8 8 8 9 9 10 11 12
2 2 6 7 9 10 11 12 12 12 12 12 11 11 11 11 11 10 10 10 11 11 10 10 11 9 8 9 9 10 9 8 8 8 8 8 8 8 8 9 9 8 8 8
5 7 9 10 11 12 12 13 13 13 13 13 12 12 12 12 12 11 11 10 11 11 10 10 10 8 7 8 9 8 9 9 8 8 8 8 7 8 8 7 7 7 7 6
8 8 10 11 12 13 12 12 13 14 13 13 13 13 14 14 13 12 11 11 11 11 10 10 9 8 8 8 8 8 9 9 8 8 8 7 7 7 7 7 7 7 7 7
6 8 10 12 13 14 14 14 14 14 13 13 14 14 14 13 13 12 11 11 12 12 11 10 9 10 9 9 8 8 8 8 8 8 8 7 7 7 7 7 7 7 6 6
9 11 12 14 14 14 14 14 13 13 13 13 14 14 13 13 12 11 11 11 11 11 9 10 9 10 10 9 7 7 8 9 8 8 8 7 7 7 6 6 6 6 5 5
12 14 14 15 15 15 14 14 14 13 13 14 14 14 13 13 12 12 12 11 9 8 8 8 9 9 9 8 5 7 8 8 8 7 7 6 7 6 6 6 6 5 5 5
14 15 16 15 15 15 14 14 14 14 13 13 14 14 13 12 11 10 11 11 9 8 9 8 7 7 7 6 4 7 7 7 7 7 6 6 6 6 5 5 5 5 5 5
14 14 15 16 15 14 13 13 13 14 13 13 14 13 13 12 12 11 10 9 8 5 6 7 8 8 5 3 7 7 7 7 7 6 6 6 5 5 5 5 5 5 5 4
13 13 14 15 15 14 14 13 13 13 13 13 12 12 11 10 9 9 9 8 8 6 7 8 8 6 3 4 7 7 7 7 6 6 6 5 5 5 5 5 5 4 4 4
13 13 13 14 14 15 14 13 12 11 12 12 11 11 10 10 9 9 10 9 8 7 8 8 6 3 1 6 6 6 6 6 5 5 5 5 5 5 4 4 4 3 3 3
13 13 13 14 13 12 13 13 14 13 12 11 12 11 9 8 9 9 9 10 8 7 9 8 4 1 3 6 6 6 6 6 5 5 5 4 4 4 4 3 3 3 3 3
12 11 11 10 10 10 11 11 10 10 10 10 9 9 8 9 10 9 8 9 9 7 7 7 6 4 5 6 6 6 6 6 5 4 5 4 4 4 3 3 3 2 2 3
12 11 10 10 9 9 10 10 10 10 10 10 10 9 9 8 8 8 9 8 7 7 6 6 5 5 5 5 5 5 5 5 4 4 4 4 3 3 3 3 2 2 2 2
Wind_Direction
230 200 195 202 203 207 220 234 242 238 232 200 163 156 145 140 136 130 127 127 127 127 127 139 148 161 171 174 174 179 180 183 188 189 187 187 189 195 195 196 197 197 200 204
210 203 206 210 209 210 218 231 243 242 221 130 137 136 136 139 142 140 135 129 127 129 132 141 154 169 173 174 172 177 181 182 178 174 173 180 183 181 178 182 181 178 181 184
206 195 203 214 210 209 211 220 232 232 191 146 148 146 141 138 142 139 134 132 126 132 142 148 160 165 169 167 168 172 176 174 169 166 165 169 170 166 160 155 146 145 144 139
204 192 217 199 154 208 207 208 220 181 146 154 148 133 126 129 133 127 118 116 115 114 124 133 141 152 156 154 156 160 160 158 158 154 153 154 152 148 142 132 123 118 113 109
214 213 213 181 176 191 202 205 192 173 150 141 135 133 119 108 106 101 96 89 86 87 96 105 117 133 140 137 138 138 140 146 151 151 146 142 138 131 121 112 107 104 100 93
219 226 224 186 155 171 205 205 164 165 157 155 169 183 141 121 106 92 85 82 84 89 94 97 104 124 127 125 125 128 132 139 141 136 133 130 122 117 112 108 107 100 86 77
220 227 220 117 144 172 212 179 141 158 160 169 176 91 122 127 113 99 96 93 93 94 96 95 102 114 114 111 110 112 112 112 115 120 120 117 110 107 107 106 103 98 94 85
219 226 207 126 167 191 83 104 133 142 150 141 117 114 122 123 118 112 107 102 99 98 93 94 102 113 110 104 107 107 103 100 98 101 106 108 107 104 105 110 109 105 100 92
227 166 89 116 94 79 103 130 131 134 132 134 131 130 126 123 119 113 108 103 101 102 98 95 96 105 106 105 106 105 101 97 94 94 91 95 101 105 105 103 103 104 102 96
175 129 116 112 104 104 113 124 128 130 136 138 135 134 131 125 119 112 107 104 105 105 101 97 96 97 101 107 109 106 102 101 98 95 88 79 74 78 83 86 97 104 101 101
185 145 137 127 111 107 109 120 127 128 133 136 134 135 132 126 120 114 107 100 100 101 99 97 95 95 100 108 110 107 104 101 99 95 93 84 73 59 66 57 53 72 86 88
189 149 160 121 114 122 127 128 129 129 126 128 132 132 129 121 115 112 108 104 101 97 99 98 97 94 92 104 109 111 109 106 102 101 99 98 95 82 60 62 58 55 54 69
112 105 99 111 116 125 128 126 126 128 128 126 123 125 124 117 112 109 106 103 103 102 99 100 98 93 92 98 107 108 109 107 105 105 106 104 104 104 99 80 69 63 61 67
122 126 126 120 117 117 118 118 117 116 116 117 116 117 117 114 111 107 106 107 106 102 99 98 95 89 90 96 102 105 106 103 106 107 106 106 107 108 108 108 103 91 77 75
141 141 132 124 122 120 120 121 117 114 113 112 113 113 113 111 108 105 104 106 104 99 96 96 92 86 88 96 99 101 101 102 101 105 106 106 109 107 105 104 104 105 105 98
131 125 131 133 130 128 127 124 120 119 118 116 113 111 110 108 105 102 102 102 101 96 93 91 88 86 87 97 105 102 95 90 99 107 106 108 108 107 106 106 104 100 96 92
146 143 140 136 133 130 125 122 121 120 119 117 115 113 112 110 104 99 97 94 91 89 88 90 92 94 96 100 103 105 106 104 106 102 99 99 100 100 99 98 96 94 87 62
152 144 142 136 133 128 124 122 121 118 117 117 116 113 110 108 105 101 99 98 92 85 80 84 92 97 97 96 95 100 103 100 95 93 94 91 93 94 95 96 97 97 97 92
135 134 130 128 126 126 125 123 121 119 120 120 115 112 108 105 103 102 100 97 93 88 82 86 88 94 93 88 93 103 103 103 99 96 98 103 101 96 96 95 93 90 87 84
129 128 126 124 124 123 123 123 123 122 123 122 117 114 110 108 108 106 100 90 83 88 93 90 95 93 93 84 76 99 100 102 103 103 105 103 98 97 95 93 91 89 86 83
127 126 125 123 122 121 123 125 123 122 121 120 118 115 112 109 109 109 108 98 86 87 96 92 89 90 93 94 98 100 102 103 104 105 106 104 103 100 95 92 90 88 85 82
124 125 126 125 123 120 120 121 121 121 119 118 117 117 116 114 110 102 93 95 98 84 95 92 87 74 65 86 98 98 99 100 100 100 99 98 98 96 93 90 88 85 81 75
122 123 125 126 123 121 119 121 122 122 121 120 120 120 116 112 112 110 105 99 102 88 87 81 74 62 13 97 95 99 99 98 99 99 98 95 95 95 95 93 86 82 78 75
119 120 122 123 123 122 121 120 119 118 117 115 115 115 117 114 107 101 102 96 86 93 93 85 73 40 343 101 99 99 98 98 97 97 99 102 102 99 96 93 90 85 80 72
117 117 118 122 123 124 123 123 121 121 119 116 115 114 110 107 110 109 110 110 112 110 105 103 93 29 96 95 99 97 94 86 84 91 97 97 103 104 97 90 84 82 76 67
119 118 117 119 120 126 131 130 127 126 124 121 117 115 113 113 115 117 116 115 110 105 106 109 107 111 92 94 95 95 98 103 103 97 89 91 91 94 93 87 82 68 63 56
113 113 116 117 120 123 126 127 126 126 126 124 122 121 121 120 119 120 119 119 118 111 106 106 104 98 95 96 97 97 97 98 98 96 97 94 91 91 95 98 86 77 65 63
Height
1434 1432 1435 1440 1443 1446 1449 1448 1452 1451 1451 1454 1459 1465 1469 1473 1476 1478 1480 1482 1483 1485 1486 1486 1487 1488 1489 1490 1492 1493 1495 1496 1497 1499 1500 1502 1503 1505 1506 1508 1510 1511 1513 1515
1440 1437 1438 1441 1440 1443 1445 1445 1446 1447 1452 1456 1462 1467 1471 1474 1476 1478 1480 1482 1483 1484 1485 1486 1486 1487 1488 1489 1490 1491 1493 1495 1497 1498 1499 1501 1502 1503 1505 1506 1508 1509 1511 1512
1441 1438 1442 1447 1440 1441 1443 1443 1444 1448 1452 1459 1463 1468 1472 1474 1476 1478 1480 1481 1483 1484 1484 1485 1485 1485 1486 1488 1489 1490 1492 1493 1495 1496 1498 1500 1501 1503 1504 1505 1506 1508 1509 1510
1437 1446 1457 1440 1437 1438 1441 1444 1445 1448 1453 1459 1464 1470 1473 1475 1477 1478 1480 1481 1482 1483 1483 1484 1484 1485 1486 1487 1488 1489 1490 1492 1494 1495 1497 1499 1501 1502 1503 1504 1506 1507 1508 1509
1437 1444 1442 1442 1440 1441 1444 1447 1447 1450 1456 1461 1466 1470 1474 1476 1478 1479 1480 1480 1481 1482 1483 1483 1484 1484 1486 1487 1488 1489 1489 1490 1492 1494 1496 1498 1500 1501 1503 1504 1505 1507 1508 1510
1438 1444 1447 1437 1438 1442 1445 1449 1450 1453 1457 1462 1465 1463 1471 1476 1477 1478 1479 1480 1481 1482 1482 1483 1484 1484 1485 1486 1487 1488 1489 1491 1492 1494 1496 1498 1500 1501 1503 1504 1505 1507 1508 1510
1438 1440 1433 1437 1441 1444 1451 1448 1452 1454 1458 1461 1462 1464 1471 1475 1477 1478 1479 1480 1481 1481 1482 1483 1484 1485 1485 1486 1487 1489 1490 1492 1493 1494 1496 1498 1500 1502 1503 1505 1506 1507 1509 1510
1436 1440 1440 1442 1442 1444 1447 1451 1453 1456 1460 1463 1466 1469 1472 1474 1477 1478 1479 1480 1481 1482 1482 1483 1484 1485 1486 1487 1488 1489 1491 1492 1494 1495 1497 1499 1501 1502 1504 1506 1507 1509 1510 1511
1433 1439 1444 1445 1446 1450 1451 1453 1455 1458 1461 1464 1467 1470 1472 1475 1477 1478 1479 1480 1481 1482 1483 1484 1484 1485 1486 1488 1489 1490 1492 1494 1495 1497 1499 1501 1503 1504 1506 1507 1509 1510 1512 1513
1439 1442 1446 1448 1450 1451 1453 1455 1457 1459 1462 1465 1467 1470 1473 1475 1477 1478 1480 1481 1482 1483 1483 1484 1485 1487 1488 1489 1491 1492 1494 1496 1497 1499 1501 1502 1504 1506 1508 1509 1511 1512 1513 1514
1441 1445 1447 1449 1451 1453 1454 1456 1458 1461 1463 1465 1468 1470 1473 1475 1477 1479 1480 1481 1482 1483 1484 1485 1487 1488 1490 1491 1493 1494 1496 1498 1500 1501 1503 1505 1506 1507 1509 1510 1512 1513 1515 1516
1439 1444 1445 1449 1452 1454 1455 1457 1459 1461 1464 1466 1468 1471 1473 1476 1478 1479 1480 1482 1483 1484 1486 1487 1488 1490 1492 1493 1495 1496 1498 1500 1502 1504 1506 1508 1509 1509 1511 1513 1514 1516 1517 1517
1445 1446 1448 1450 1453 1455 1456 1458 1460 1462 1464 1466 1469 1471 1474 1476 1478 1480 1482 1483 1485 1486 1488 1489 1491 1492 1494 1496 1498 1499 1501 1503 1505 1507 1509 1510 1512 1513 1514 1516 1517 1518 1519 1520
1447 1448 1450 1452 1454 1456 1457 1459 1461 1463 1466 1468 1470 1473 1475 1477 1480 1482 1484 1485 1487 1489 1490 1492 1493 1495 1497 1499 1500 1502 1504 1505 1507 1509 1511 1513 1515 1517 1518 1519 1520 1521 1522 1523
1448 1449 1450 1452 1455 1457 1459 1460 1462 1465 1467 1470 1473 1475 1477 1479 1481 1484 1486 1488 1490 1491 1493 1495 1496 1498 1500 1502 1503 1505 1507 1509 1511 1513 1514 1516 1518 1520 1521 1522 1523 1524 1525 1525
1448 1449 1451 1453 1456 1458 1460 1462 1464 1467 1470 1473 1475 1478 1480 1482 1484 1487 1489 1491 1493 1494 1496 1497 1498 1500 1502 1505 1506 1508 1509 1511 1513 1515 1517 1519 1521 1522 1524 1525 1526 1527 1528 1529
1448 1450 1452 1454 1457 1460 1463 1465 1467 1469 1472 1475 1478 1481 1483 1486 1488 1490 1492 1495 1496 1498 1499 1501 1502 1504 1506 1507 1509 1511 1512 1514 1516 1518 1520 1522 1523 1524 1526 1527 1528 1529 1529 1529
1448 1451 1453 1455 1458 1462 1465 1468 1471 1473 1476 1479 1482 1485 1488 1490 1492 1494 1496 1498 1500 1501 1503 1505 1506 1507 1509 1510 1512 1513 1515 1517 1519 1520 1522 1523 1525 1526 1527 1528 1529 1530 1531 1531
1449 1452 1455 1458 1461 1464 1467 1471 1474 1477 1481 1484 1486 1489 1492 1494 1496 1498 1500 1502 1504 1505 1507 1508 1509 1511 1512 1513 1515 1516 1518 1519 1521 1522 1524 1525 1527 1528 1529 1530 1531 1532 1533 1533
1451 1454 1457 1460 1464 1467 1471 1474 1478 1481 1485 1488 1490 1493 1496 1498 1500 1502 1504 1506 1507 1509 1510 1512 1513 1514 1515 1515 1517 1519 1520 1522 1523 1524 1526 1527 1529 1530 1531 1532 1532 1533 1533 1534
1453 1456 1460 1463 1467 1471 1474 1478 1481 1484 1488 1491 1494 1496 1499 1501 1504 1506 1508 1509 1511 1512 1514 1515 1516 1517 1518 1519 1520 1522 1523 1524 1525 1527 1528 1529 1530 1531 1532 1533 1533 1534 1534 1534
1455 1459 1463 1466 1470 1474 1478 1481 1484 1487 1491 1494 1497 1500 1502 1504 1507 1509 1511 1512 1514 1515 1517 1518 1519 1519 1520 1522 1523 1524 1525 1527 1528 1529 1530 1531 1532 1533 1533 1534 1534 1534 1535 1535
1458 1462 1466 1470 1474 1477 1481 1485 1488 1491 1494 1498 1500 1503 1505 1508 1510 1512 1514 1516 1517 1518 1520 1520 1521 1521 1523 1525 1526 1527 1528 1529 1530 1531 1532 1532 1533 1533 1534 1534 1535 1535 1535 1535
1462 1466 1470 1474 1477 1481 1485 1489 1492 1495 1498 1501 1503 1506 1508 1510 1513 1515 1516 1517 1519 1521 1521 1522 1523 1524 1525 1527 1528 1529 1530 1531 1532 1532 1533 1534 1534 1535 1535 1535 1535 1536 1535 1535
1466 1470 1473 1477 1481 1485 1488 1491 1495 1498 1501 1504 1507 1509 1511 1513 1515 1517 1519 1520 1522 1523 1524 1524 1525 1526 1528 1529 1530 1531 1531 1532 1533 1533 1534 1535 1535 1536 1536 1536 1536 1536 1536 1536
1471 1474 1478 1481 1484 1488 1491 1494 1497 1501 1504 1507 1509 1512 1514 1516 1518 1520 1521 1523 1524 1525 1527 1527 1528 1529 1530 1531 1531 1532 1533 1533 1534 1535 1535 1536 1536 1536 1536 1536 1536 1536 1536 1536
1475 1478 1481 1485 1488 1491 1494 1497 1500 1503 1506 1509 1511 1514 1516 1518 1520 1522 1524 1525 1527 1528 1529 1530 1531 1531 1532 1532 1533 1534 1534 1535 1535 1536 1536 1536 1536 1536 1536 1536 1536 1536 1536 1536